DW4312 Weather Reports


time (UTC)temp
F
wind
direction
speed
knots
gust
knots
rain 1hr
in
rain 24hr
in
rain mn
in
humidity
%
barometer
mb
20240222104145 46 30 1.7 2.6 0.00 0.55 0.00 84 1020.1
20240222103623 46 30 1.7 3.5 0.00 0.55 0.00 85 1020.1
20240222103126 46 30 1.7 3.5 0.00 0.55 0.00 85 1020.4
20240222102625 45 30 1.7 3.5 0.00 0.55 0.00 86 1020.4
20240222102131 45 36 1.7 3.5 0.00 0.55 0.00 86 1020.4
20240222101635 45 36 1.7 3.5 0.00 0.55 0.00 86 1020.6
20240222101138 46 36 2.6 3.5 0.00 0.55 0.00 86 1020.6
20240222100657 46 36 1.7 1.7 0.00 0.55 0.00 85 1020.6
20240222100122 46 36 1.7 1.7 0.00 0.55 0.00 85 1020.5
20240222095641 46 36 0.9 3.5 0.00 0.55 0.00 85 1020.5
20240222095124 46 36 0.9 3.5 0.00 0.55 0.00 86 1020.5
20240222094625 46 36 1.7 2.6 0.00 0.55 0.00 87 1020.7
20240222094128 46 36 1.7 3.5 0.00 0.55 0.00 87 1020.7
20240222093627 46 36 1.7 3.5 0.00 0.55 0.00 86 1020.7
20240222093130 46 36 1.7 1.7 0.00 0.55 0.00 84 1020.7
20240222092628 46 36 0.9 1.7 0.00 0.55 0.00 85 1020.7
20240222092131 47 36 0.0 2.6 0.00 0.58 0.00 83 1020.7
20240222091630 47 36 0.9 3.5 0.00 0.58 0.00 82 1020.9
20240222091137 47 18 1.7 3.5 0.00 0.58 0.00 83 1020.9
20240222090640 47 19 0.9 3.5 0.00 0.58 0.00 84 1020.9
20240222090144 47 42 0.9 2.6 0.00 0.58 0.00 85 1021.0
20240222085625 47 42 0.9 2.6 0.00 0.58 0.00 84 1021.0
20240222085128 47 42 1.7 3.5 0.00 0.58 0.00 83 1021.0
20240222084628 47 42 2.6 3.5 0.00 0.58 0.00 82 1021.2
20240222084131 47 42 0.9 1.7 0.00 0.58 0.00 82 1021.2
20240222083650 47 42 1.7 2.6 0.00 0.58 0.00 83 1021.2
20240222083132 48 42 1.7 3.5 0.00 0.58 0.57 83 1021.1
20240222082634 47 42 1.7 3.5 0.00 0.58 0.57 84 1021.1
20240222082157 47 42 0.9 1.7 0.00 0.62 0.57 83 1021.1
20240222081635 48 42 1.7 3.5 0.00 0.62 0.57 82 1021.0
20240222081141 48 42 1.7 3.5 0.00 0.62 0.57 81 1021.0
20240222080620 48 47 0.9 3.5 0.00 0.62 0.57 82 1021.0
20240222080128 48 39 1.7 3.5 0.00 0.62 0.57 85 1021.2
20240222075629 48 40 1.7 3.5 0.00 0.62 0.57 85 1021.2
20240222075131 47 18 1.7 3.5 0.00 0.62 0.57 84 1021.2
20240222074631 47 32 1.7 3.5 0.00 0.62 0.57 83 1021.3
20240222074133 47 32 0.9 3.5 0.00 0.62 0.57 84 1021.3
20240222073652 48 15 0.0 0.0 0.00 0.62 0.57 86 1021.3
20240222073134 48 13 0.0 0.0 0.00 0.62 0.57 87 1021.3
20240222072634 48 13 0.0 0.0 0.00 0.62 0.57 87 1021.3
20240222072201 48 13 0.0 0.0 0.00 0.65 0.57 87 1021.3
20240222071640 48 13 0.0 0.0 0.00 0.65 0.57 87 1021.2
20240222071144 48 13 0.0 0.0 0.00 0.65 0.57 87 1021.2
20240222070622 48 13 0.0 0.0 0.00 0.65 0.57 87 1021.2
20240222070125 48 347 0.0 0.0 0.00 0.65 0.57 86 1020.8
20240222065624 48 15 0.0 0.0 0.00 0.65 0.57 85 1020.8
20240222065151 49 15 0.0 0.0 0.00 0.65 0.57 85 1020.8
20240222064629 48 28 0.0 0.0 0.00 0.65 0.57 86 1021.1
20240222064136 48 28 0.0 0.0 0.00 0.65 0.57 86 1021.1
20240222063635 49 28 0.0 0.0 0.00 0.65 0.57 86 1021.1
20240222063138 49 28 0.0 0.9 0.00 0.65 0.57 85 1020.8
20240222062637 49 45 0.0 2.6 0.00 0.65 0.57 84 1020.8
20240222062141 50 45 0.0 3.5 0.00 0.69 0.57 84 1020.8
20240222061641 50 44 0.9 4.3 0.00 0.69 0.57 84 1021.1
20240222061125 50 33 2.6 4.3 0.00 0.69 0.57 85 1021.1
20240222060624 50 22 2.6 4.3 0.00 0.69 0.57 85 1021.1
20240222060126 49 28 1.7 4.3 0.00 0.69 0.57 86 1021.2
20240222055629 49 19 1.7 4.3 0.00 0.69 0.57 86 1021.2
20240222055131 50 43 2.6 4.3 0.00 0.69 0.57 86 1021.2
20240222054630 49 32 1.7 5.2 0.00 0.69 0.57 86 1021.1
20240222054133 49 19 2.6 5.2 0.00 0.69 0.57 87 1021.1
20240222053636 49 30 1.7 1.7 0.00 0.69 0.57 87 1021.1
20240222053121 49 15 1.7 2.6 0.00 0.69 0.57 87 1020.8
20240222052623 49 27 0.9 2.6 0.00 0.69 0.57 87 1020.8
20240222052125 49 27 1.7 2.6 0.00 0.69 0.57 87 1020.8
20240222051643 49 22 1.7 3.5 0.00 0.69 0.57 87 1020.7
20240222051145 49 25 1.7 3.5 0.00 0.69 0.57 87 1020.7
20240222050644 49 25 1.7 1.7 0.00 0.69 0.57 87 1020.7
20240222050147 49 16 0.9 1.7 0.00 0.69 0.57 87 1020.6
20240222045623 49 22 0.9 2.6 0.00 0.69 0.57 87 1020.6
20240222045126 49 23 1.7 2.6 0.00 0.69 0.57 87 1020.6
20240222044626 50 23 0.9 3.5 0.00 0.69 0.57 87 1019.8
20240222044129 50 28 1.7 3.5 0.00 0.69 0.57 87 1019.8
20240222043626 50 19 0.0 0.0 0.00 0.69 0.57 87 1019.8
20240222043129 49 30 0.0 0.0 0.00 0.69 0.57 88 1020.0
20240222042629 49 22 0.0 0.0 0.00 0.69 0.57 88 1020.0
20240222042131 49 21 0.0 0.0 0.00 0.79 0.57 88 1020.0
20240222041636 49 24 0.0 0.0 0.00 0.79 0.57 88 1020.8
20240222041141 49 24 0.0 0.0 0.00 0.79 0.57 89 1020.8
20240222040640 50 24 0.0 0.0 0.00 0.79 0.57 88 1020.8
20240222040122 50 24 0.0 0.0 0.00 0.79 0.57 88 1020.4
20240222035623 50 24 0.0 0.0 0.00 0.79 0.57 88 1020.4
20240222035150 50 24 0.0 0.0 0.00 0.79 0.57 88 1020.4
20240222034627 50 24 0.0 0.0 0.00 0.79 0.57 88 1019.5
20240222034129 50 24 0.0 0.0 0.00 0.79 0.57 88 1019.5
20240222033628 50 29 0.0 0.0 0.00 0.79 0.57 88 1019.5
20240222033132 50 29 0.0 0.0 0.00 0.79 0.57 88 1019.0
20240222032633 50 29 0.0 0.9 0.00 0.79 0.57 87 1019.0
20240222032137 51 29 0.0 1.7 0.00 0.83 0.57 86 1019.0
20240222031636 51 29 0.9 1.7 0.00 0.83 0.57 86 1019.1
20240222031123 51 29 1.7 1.7 0.00 0.83 0.57 87 1019.1
20240222030622 51 36 0.0 0.0 0.00 0.83 0.57 87 1019.1
20240222030125 51 28 0.0 0.0 0.00 0.83 0.57 87 1020.1
20240222025625 51 355 0.0 0.0 0.00 0.83 0.57 88 1020.1
20240222025129 51 78 0.0 0.0 0.00 0.83 0.57 87 1020.1
20240222024631 51 78 0.0 0.0 0.00 0.83 0.57 87 1019.9
20240222024133 52 78 0.0 0.0 0.00 0.83 0.57 86 1019.9
20240222023633 52 78 0.0 0.9 0.00 0.83 0.57 86 1019.9
20240222023156 52 78 0.0 1.7 0.00 0.83 0.57 86 1020.0
20240222022654 53 78 0.9 1.7 0.00 0.83 0.57 85 1020.0
20240222022134 53 98 0.0 5.2 0.00 0.90 0.57 84 1020.0
20240222021633 53 107 1.7 5.2 0.00 0.90 0.57 83 1020.1
20240222021137 54 55 0.9 5.2 0.00 0.90 0.57 82 1020.1
20240222020636 54 81 1.7 4.3 0.00 0.90 0.57 82 1020.1
20240222020122 54 112 2.6 4.3 0.00 0.90 0.57 80 1020.1
20240222015641 55 130 0.9 4.3 0.00 0.90 0.57 79 1020.1
20240222015127 55 101 2.6 6.1 0.00 0.90 0.57 78 1020.1
20240222014624 55 86 1.7 6.1 0.00 0.90 0.57 77 1019.6
20240222014150 56 86 0.9 5.2 0.00 0.90 0.57 77 1019.6
20240222013627 56 92 3.5 5.2 0.00 0.90 0.57 75 1019.6
20240222013131 57 134 2.6 5.2 0.00 0.90 0.57 74 1018.9
20240222012633 58 214 1.7 5.2 0.00 0.90 0.57 74 1018.9
20240222012136 58 94 1.7 3.5 0.00 0.93 0.57 73 1018.9
20240222011655 58 146 0.9 5.2 0.00 0.93 0.57 72 1018.7
20240222011138 58 215 3.5 5.2 0.00 0.93 0.57 70 1018.7
20240222010619 59 219 1.7 6.1 0.00 0.93 0.57 68 1018.7
20240222010124 59 144 2.6 6.1 0.00 0.93 0.57 70 1018.7
20240222005624 59 223 1.7 6.1 0.00 0.93 0.57 68 1018.7
20240222005130 60 204 1.7 6.1 0.00 0.93 0.57 67 1018.7
20240222004633 60 202 3.5 6.1 0.00 0.93 0.57 66 1018.3
20240222004135 60 217 1.7 4.3 0.00 0.93 0.57 69 1018.3
20240222003634 60 145 2.6 5.2 0.00 0.93 0.57 69 1018.3
20240222003137 60 141 3.5 5.2 0.00 0.93 0.57 68 1018.0
20240222002636 60 171 0.9 4.3 0.00 0.93 0.57 66 1018.0
20240222002122 60 155 2.6 4.3 0.00 0.93 0.57 65 1018.0
20240222001622 60 198 0.9 5.2 0.00 0.93 0.57 66 1018.4
20240222001147 60 167 2.6 5.2 0.00 0.93 0.57 66 1018.4
20240222000626 60 87 2.6 6.1 0.00 0.93 0.57 67 1018.4
20240222000128 60 142 4.3 6.1 0.00 0.93 0.57 67 1018.2
20240221235627 60 138 2.6 7.8 0.00 0.93 0.57 68 1018.2
20240221235134 60 215 4.3 7.8 0.00 0.93 0.57 66 1018.2
20240221234637 61 245 1.7 6.1 0.00 0.93 0.57 67 1018.4
20240221234139 61 128 2.6 6.1 0.00 0.93 0.57 67 1018.4
20240221233639 60 233 3.5 6.1 0.00 0.93 0.57 67 1018.4
20240221233121 60 209 2.6 5.2 0.00 0.93 0.57 66 1018.7
20240221232640 60 239 1.7 5.2 0.00 0.93 0.57 66 1018.7
20240221232123 60 157 0.9 4.3 0.00 0.96 0.57 68 1018.7
20240221231625 59 67 1.7 4.3 0.00 0.96 0.57 67 1019.0
20240221231129 59 92 2.6 7.0 0.00 0.96 0.57 67 1019.0
20240221230648 59 157 3.5 7.0 0.00 0.96 0.57 67 1019.0
20240221230129 60 219 1.7 5.2 0.00 0.96 0.57 66 1019.3
20240221225629 60 140 2.6 5.2 0.00 0.96 0.57 69 1019.3
20240221225133 60 219 2.6 8.7 0.00 0.96 0.57 71 1019.3
20240221224631 58 212 1.7 8.7 0.00 0.96 0.57 73 1019.4
20240221224138 58 191 3.5 7.0 0.00 0.96 0.57 73 1019.4
20240221223700 58 212 4.3 7.0 0.00 0.96 0.57 70 1019.4
20240221223142 59 165 1.7 7.0 0.00 0.96 0.57 71 1019.1
20240221222621 59 200 1.7 7.0 0.00 0.96 0.57 72 1019.1
20240221222124 60 211 2.6 7.8 0.00 1.45 0.57 71 1019.1
20240221221623 59 94 3.5 7.8 0.00 1.45 0.57 72 1019.0
20240221221128 59 237 2.6 7.0 0.00 1.45 0.57 73 1019.0
20240221220628 59 202 3.5 5.2 0.00 1.45 0.57 72 1019.0
20240221220132 59 117 1.7 5.2 0.00 1.45 0.57 73 1019.1
20240221215631 58 176 1.7 5.2 0.00 1.45 0.57 73 1019.1
20240221215134 58 144 0.9 7.0 0.00 1.45 0.57 74 1019.1
20240221214633 58 111 3.5 7.0 0.00 1.45 0.57 74 1019.1
20240221214136 58 146 0.9 5.2 0.00 1.45 0.57 73 1019.1
20240221213700 58 137 0.9 4.3 0.00 1.45 0.57 73 1019.1
20240221213124 58 94 1.7 5.2 0.00 1.45 0.57 71 1019.1
20240221212623 58 109 0.9 5.2 0.00 1.45 0.57 71 1019.1
20240221212126 58 32 1.7 3.5 0.00 1.63 0.57 71 1019.1
20240221211626 58 320 0.9 4.3 0.00 1.63 0.57 71 1019.3
20240221211128 58 106 1.7 5.2 0.00 1.63 0.57 73 1019.3
20240221210630 57 93 0.9 5.2 0.00 1.63 0.57 74 1019.3
20240221210133 56 141 1.7 4.3 0.00 1.63 0.57 74 1019.3
20240221205633 56 130 0.0 6.1 0.00 1.63 0.57 75 1019.3
20240221205135 56 132 0.9 6.1 0.00 1.63 0.57 74 1019.3
20240221204635 56 137 2.6 5.2 0.00 1.63 0.57 74 1019.6
20240221204138 57 110 1.7 4.3 0.00 1.63 0.57 73 1019.6
20240221203619 57 204 0.0 1.7 0.00 1.63 0.57 74 1019.6
20240221203129 56 136 0.0 1.7 0.00 1.63 0.57 73 1019.8
20240221202628 56 135 0.9 1.7 0.00 1.63 0.57 74 1019.8
20240221202131 56 226 0.0 1.7 0.00 1.70 0.57 75 1019.8
20240221201630 56 264 0.9 4.3 0.00 1.70 0.57 76 1019.9
20240221201136 56 171 2.6 4.3 0.00 1.70 0.57 74 1019.9
20240221200659 57 214 0.9 4.3 0.00 1.70 0.57 72 1019.9
20240221200121 54 139 0.0 0.0 0.00 1.70 0.57 1019.9
20240221195621 54 139 0.0 0.0 0.00 1.70 0.57 1019.9
20240221195124 54 139 0.0 0.0 0.00 1.70 0.57 1019.9
20240221194623 54 139 0.0 0.0 0.00 1.70 0.57 1019.9
20240221194126 54 140 0.0 0.0 0.00 1.70 0.57 1019.9
20240221193626 54 140 0.0 0.0 0.00 1.70 0.57 1019.9
20240221193152 53 202 0.0 0.0 0.00 1.70 0.57 1020.1
20240221192630 53 202 0.0 4.3 0.00 1.70 0.57 1020.1
20240221192137 52 202 0.0 4.3 0.00 1.70 0.57 1020.1
20240221191636 52 136 0.0 0.0 0.00 1.70 0.57 1020.0
20240221191122 52 136 0.0 0.0 0.00 1.70 0.57 1020.0
20240221190621 52 136 0.0 0.0 0.00 1.70 0.57 1020.0
20240221190147 52 136 0.0 0.0 0.00 1.70 0.57 1020.1
20240221185646 52 136 0.0 0.0 0.00 1.70 0.57 1020.1
20240221185127 51 136 0.0 0.0 0.00 1.70 0.57 1020.1
20240221184626 51 136 0.0 0.0 0.00 1.70 0.57 1020.2
20240221184129 51 136 0.0 0.0 0.00 1.70 0.57 1020.2
20240221183648 51 136 0.0 1.7 0.00 1.70 0.57 1020.2
20240221183130 51 164 0.0 4.3 0.00 1.70 0.57 1020.0
20240221182630 51 119 0.0 4.3 0.00 1.70 0.57 1020.0
20240221182156 51 150 0.0 2.6 0.00 1.73 0.57 1020.0
20240221181635 51 138 0.0 4.3 0.00 1.73 0.57 1019.5
20240221181138 51 195 0.0 4.3 0.00 1.73 0.57 1019.5
20240221180621 51 119 2.6 4.3 0.00 1.73 0.57 1019.5
20240221180123 50 145 1.7 3.5 0.00 1.73 0.57 1019.2
20240221175643 50 159 0.0 1.7 0.00 1.73 0.57 1019.2
20240221175124 50 154 0.0 3.5 0.00 1.73 0.57 1019.2
20240221174623 50 121 0.9 3.5 0.00 1.73 0.57 1018.9
20240221174126 50 150 0.0 4.3 0.00 1.73 0.57 1018.9
20240221173625 50 159 1.7 4.3 0.00 1.73 0.57 1018.9
20240221173128 49 199 0.0 1.7 0.00 1.73 0.57 1018.6
20240221172627 49 215 0.0 0.0 0.00 1.73 0.57 1018.6
20240221172130 49 338 0.0 0.0 0.00 1.76 0.57 1018.6
20240221171629 49 338 0.0 0.9 0.00 1.76 0.57 1018.5
20240221171133 49 338 0.0 0.9 0.00 1.76 0.57 1018.5
20240221170635 49 338 0.0 0.0 0.00 1.76 0.57 1018.5
20240221170122 49 338 0.0 0.0 0.00 1.76 0.57 1018.4
20240221165640 49 338 0.0 0.0 0.00 1.76 0.57 1018.4
20240221165123 48 338 0.0 0.0 0.00 1.76 0.57 1018.4
20240221164623 49 338 0.0 0.0 0.00 1.76 0.57 1018.0
20240221164126 49 338 0.0 0.0 0.00 1.76 0.57 1018.0
20240221163645 48 338 0.0 0.0 0.00 1.76 0.57 1018.0
20240221163150 48 338 0.0 0.0 0.00 1.76 0.57 1018.0
20240221162628 47 338 0.0 0.0 0.00 1.76 0.57 1018.0
20240221162131 47 338 0.0 0.0 0.00 1.79 0.57 1018.0
20240221161630 47 338 0.0 0.0 0.00 1.79 0.57 1017.8
20240221161136 47 338 0.0 0.0 0.00 1.79 0.57 1017.8
20240221160635 47 338 0.0 0.0 0.00 1.79 0.57 1017.8
20240221160137 47 338 0.0 0.0 0.00 1.79 0.57 1017.9
20240221155636 46 338 0.0 0.0 0.00 1.79 0.57 1017.9
20240221155122 46 338 0.0 0.0 0.00 1.79 0.57 1017.9
20240221154621 46 338 0.0 0.0 0.00 1.79 0.57 1017.0
20240221154127 46 338 0.0 0.0 0.00 1.79 0.57 1017.0
20240221153626 46 338 0.0 2.6 0.00 1.79 0.57 1017.0
20240221153129 45 338 0.0 2.6 0.00 1.79 0.57 1017.3
20240221152631 45 338 0.0 0.9 0.00 1.79 0.57 1017.3
20240221152134 45 338 0.0 0.9 0.00 1.81 0.57 1017.3
20240221151633 45 338 0.0 0.0 0.00 1.81 0.57 1017.2
20240221151136 45 338 0.0 0.0 0.00 1.81 0.57 1017.2
20240221150636 45 338 0.0 0.0 0.00 1.81 0.57 1017.2
20240221150139 44 338 0.0 0.0 0.00 1.81 0.57 1016.6
20240221145702 44 338 0.0 0.0 0.00 1.81 0.57 1016.6
20240221145144 44 338 0.0 1.7 0.00 1.81 0.57 1016.6
20240221144625 44 338 0.0 1.7 0.00 1.81 0.57 1016.2
20240221144132 44 29 0.0 0.0 0.00 1.81 0.57 1016.2
20240221143631 44 29 0.0 0.0 0.00 1.81 0.57 1016.2
20240221143134 44 29 0.0 0.0 0.00 1.81 0.57 1015.6
20240221142656 44 29 0.0 0.0 0.00 1.81 0.57 1015.6
20240221142138 44 29 0.0 0.0 0.00 1.82 0.57 1015.6
20240221141638 44 29 0.0 0.0 0.00 1.82 0.57 1015.1
20240221141121 44 29 0.0 0.0 0.00 1.82 0.57 1015.1
20240221140641 45 29 0.0 0.0 0.01 1.82 0.57 1015.1
20240221140123 45 29 0.0 0.0 0.01 1.82 0.57 1015.1
20240221135622 45 29 0.0 0.0 0.01 1.82 0.57 1015.1
20240221135146 45 29 0.0 0.0 0.02 1.82 0.57 1015.1
20240221134628 45 29 0.0 0.0 0.02 1.82 0.57 1015.6
20240221134130 45 29 0.0 0.0 0.03 1.82 0.57 1015.6
20240221133630 45 29 0.0 4.3 0.05 1.82 0.57 1015.6
20240221133136 45 29 0.0 4.3 0.06 1.82 0.57 1015.2
20240221132701 45 76 0.0 0.0 0.07 1.82 0.57 1015.2
20240221132123 45 76 0.0 0.0 0.08 1.84 0.57 1015.2
20240221131642 45 76 0.0 3.5 0.09 1.84 0.57 1015.5
20240221131124 45 29 0.0 5.2 0.10 1.84 0.57 1015.5
20240221130624 45 59 0.0 0.0 0.11 1.83 0.56 1015.5
20240221130128 45 314 0.0 0.0 0.12 1.83 0.56 1015.9
20240221125627 45 314 0.0 0.0 0.14 1.83 0.56 1015.9
20240221125151 45 314 0.0 0.0 0.16 1.82 0.55 1015.9
20240221124632 45 314 0.0 0.0 0.18 1.82 0.55 1017.0
20240221124135 46 314 0.0 0.9 0.19 1.81 0.54 1017.0
20240221123634 46 336 0.0 0.0 0.19 1.79 0.52 1017.0
20240221123137 46 336 0.0 0.0 0.22 1.78 0.51 1017.0
20240221122636 46 336 0.0 0.0 0.21 1.77 0.50 1017.0
20240221122126 46 336 0.0 0.0 0.22 1.83 0.49 1017.0
20240221121627 46 336 0.0 0.0 0.23 1.82 0.48 1017.0
20240221121130 46 335 0.0 0.0 0.24 1.81 0.47 1017.0
20240221120629 46 335 0.0 0.0 0.26 1.80 0.46 1017.0
20240221120132 46 335 0.0 0.0 0.26 1.78 0.44 1016.9
20240221115634 46 335 0.0 0.0 0.26 1.76 0.42 1016.9
20240221115136 46 335 0.0 0.0 0.27 1.73 0.39 1016.9
20240221114636 46 335 0.0 0.0 0.27 1.71 0.37 1016.9
20240221114138 46 335 0.0 0.0 0.28 1.69 0.35 1016.9
20240221113637 46 337 0.0 0.0 0.29 1.67 0.33 1016.9
20240221113120 46 327 0.0 0.0 0.26 1.63 0.29 1016.4
20240221112623 46 327 0.0 7.8 0.27 1.63 0.29 1016.4
20240221112129 47 355 0.9 7.8 0.25 1.61 0.27 1016.4
20240221111628 47 308 1.7 7.0 0.23 1.59 0.25 1016.2
20240221111130 48 323 1.7 7.0 0.21 1.57 0.23 1016.2
20240221110629 49 326 3.5 7.0 0.18 1.54 0.20 1016.2
20240221110152 49 286 1.7 4.3 0.16 1.52 0.18 1016.0
20240221105630 49 168 0.0 0.0 0.14 1.50 0.16 1016.0
20240221105133 49 168 0.0 0.0 0.11 1.47 0.13 1016.0
20240221104632 49 168 0.0 0.0 0.08 1.44 0.10 1016.0